FW6587 Weather Reports


Display with metric or nautical units.
time (UTC)temp
F
wind
direction
speed
MPH
gust
MPH
rain 1hr
in
rain 24hr
in
rain mn
in
humidity
%
barometer
mb
20260510063052 50 0 0.0 0.0 0.00 0.00 0.00 73 1033.2
20260510061551 50 0 0.0 0.0 0.00 0.00 0.00 73 1033.3
20260510060055 50 0 0.0 0.0 0.00 0.00 0.00 72 1033.1
20260510054553 50 0 0.0 0.0 0.00 0.00 0.00 72 1033.2
20260510053110 50 0 0.0 0.0 0.00 0.00 0.00 72 1033.1
20260510051605 50 0 0.0 0.0 0.00 0.00 0.00 70 1033.1
20260510050100 50 0 0.0 0.0 0.00 0.00 0.00 69 1033.2
20260510044603 50 0 0.0 0.0 0.00 0.00 0.00 69 1033.4
20260510043101 50 0 0.0 0.0 0.00 0.00 0.00 68 1033.2
20260510041603 51 0 0.0 0.0 0.00 0.00 0.00 68 1033.4
20260510040101 51 0 0.0 7.0 0.00 0.00 0.00 67 1033.4
20260510034556 51 0 0.0 1.0 0.00 0.00 0.00 65 1033.1
20260510033107 51 0 1.0 6.0 0.00 0.00 0.00 65 1033.3
20260510031551 51 65 2.0 7.0 0.00 0.00 0.00 65 1033.0
20260510030107 51 301 1.0 8.0 0.00 0.00 0.00 65 1032.3
20260510024553 51 248 3.0 7.0 0.00 0.00 0.00 66 1031.2
20260510023053 52 226 0.0 12.0 0.00 0.00 0.00 66 1030.2
20260510021553 53 287 3.0 11.0 0.00 0.00 0.00 65 1029.6
20260510020056 54 319 3.0 11.0 0.00 0.00 0.00 62 1029.2
20260510014558 55 94 2.0 20.0 0.00 0.00 0.00 60 1029.0
20260510013049 56 40 3.0 14.0 0.00 0.00 0.00 57 1028.1
20260510011551 59 11 4.0 12.0 0.00 0.00 0.00 53 1027.0
20260510010052 63 343 3.0 15.0 0.00 0.00 0.00 46 1026.3
20260510004555 72 186 4.0 15.0 0.00 0.00 0.00 32 1024.9
20260510003100 75 53 0.0 3.0 0.00 0.00 0.00 21 1023.4
20260510001555 76 27 0.0 3.0 0.00 0.00 0.00 21 1023.1
20260510000054 75 0 1.0 6.0 0.00 0.00 0.00 21 1022.9
20260509234556 75 0 1.0 4.0 0.00 0.00 0.00 23 1022.8
20260509233100 75 0 0.0 0.0 0.00 0.00 0.00 22 1022.6
20260509231553 75 0 0.0 4.0 0.00 0.00 0.00 20 1022.6
20260509230052 74 0 0.0 5.0 0.00 0.00 0.00 22 1022.5
20260509224553 74 13 1.0 6.0 0.00 0.00 0.00 22 1022.4
20260509223057 76 26 1.0 7.0 0.00 0.00 0.00 20 1022.2
20260509221549 77 134 1.0 6.0 0.00 0.00 0.00 20 1022.2
20260509220059 73 140 1.0 6.0 0.00 0.00 0.00 23 1022.2
20260509214554 73 98 1.0 9.0 0.00 0.00 0.00 20 1022.0
20260509213055 74 125 1.0 4.0 0.00 0.00 0.00 22 1022.0
20260509211552 75 24 3.0 10.0 0.00 0.00 0.00 19 1022.2
20260509210056 74 338 0.0 8.0 0.00 0.00 0.00 23 1022.4
20260509204549 75 32 1.0 14.0 0.00 0.00 0.00 21 1022.2
20260509203058 75 0 1.0 7.0 0.00 0.00 0.00 23 1022.4
20260509201601 76 0 1.0 9.0 0.00 0.00 0.00 22 1022.4
20260509200107 77 107 2.0 8.0 0.00 0.00 0.00 20 1022.6
20260509194552 77 223 2.0 13.0 0.00 0.00 0.00 21 1022.8
20260509193110 77 319 3.0 9.0 0.00 0.00 0.00 21 1022.9
20260509191550 76 69 1.0 7.0 0.00 0.00 0.00 21 1023.2
20260509190051 76 9 2.0 7.0 0.00 0.00 0.00 22 1023.4
20260509184600 76 79 1.0 7.0 0.00 0.00 0.00 24 1023.3
20260509183057 76 360 1.0 9.0 0.00 0.00 0.00 23 1023.1
20260509181556 75 203 2.0 8.0 0.00 0.00 0.00 15 1023.2
20260509180100 74 34 2.0 9.0 0.00 0.00 0.00 15 1023.5
20260509174601 74 232 3.0 13.0 0.00 0.00 0.00 18 1023.4
20260509173106 74 268 2.0 11.0 0.00 0.00 0.00 18 1023.5
20260509171618 74 309 3.0 8.0 0.00 0.00 0.00 17 1023.5
20260509170052 73 112 1.0 4.0 0.00 0.00 0.00 22 1023.4
20260509164553 73 250 1.0 4.0 0.00 0.00 0.00 20 1023.4
20260509163107 72 254 0.0 5.0 0.00 0.00 0.00 18 1023.5
20260509161554 72 238 0.0 7.0 0.00 0.00 0.00 20 1023.5
20260509160053 70 0 1.0 6.0 0.00 0.00 0.00 18 1023.5
20260509154554 70 51 0.0 4.0 0.00 0.00 0.00 20 1023.5
20260509153055 69 0 1.0 5.0 0.00 0.00 0.00 22 1023.6
20260509151547 68 336 2.0 7.0 0.00 0.00 0.00 21 1023.7
20260509150104 67 244 2.0 8.0 0.00 0.00 0.00 21 1023.6
20260509144656 65 271 3.0 9.0 0.00 0.00 0.00 22 1023.6
20260509143051 61 239 4.0 12.0 0.00 0.00 0.00 29 1023.4
20260509141553 59 0 1.0 9.0 0.00 0.00 0.00 32 1023.5
20260509140051 59 302 1.0 5.0 0.00 0.00 0.00 33 1023.6
20260509134551 59 0 0.0 6.0 0.00 0.00 0.00 34 1023.5
20260509133051 58 0 0.0 2.0 0.00 0.00 0.00 36 1023.7
20260509131555 57 229 0.0 2.0 0.00 0.00 0.00 37 1023.5
20260509130104 56 0 0.0 0.0 0.00 0.00 0.00 41 1023.4
20260509124610 57 0 0.0 0.0 0.00 0.00 0.00 40 1023.0
20260509123100 58 0 0.0 0.0 0.00 0.00 0.00 38 1022.8
20260509121551 59 0 0.0 0.0 0.00 0.00 0.00 36 1022.7
20260509120105 60 0 0.0 5.0 0.00 0.00 0.00 35 1022.5
20260509114603 60 0 0.0 9.0 0.00 0.00 0.00 33 1022.2
20260509113054 59 206 2.0 9.0 0.00 0.00 0.00 34 1022.0
20260509111552 58 222 1.0 5.0 0.00 0.00 0.00 36 1022.0
20260509110053 59 92 2.0 6.0 0.00 0.00 0.00 35 1021.9
20260509104553 60 0 1.0 7.0 0.00 0.00 0.00 36 1021.7
20260509103051 61 0 0.0 8.0 0.00 0.00 0.00 33 1021.8
20260509101552 61 273 0.0 9.0 0.00 0.00 0.00 33 1021.9
20260509100056 60 248 0.0 9.0 0.00 0.00 0.00 34 1021.8
20260509094553 58 217 1.0 11.0 0.00 0.00 0.00 37 1022.0
20260509093054 59 0 0.0 5.0 0.00 0.00 0.00 38 1022.0
20260509091552 57 0 0.0 8.0 0.00 0.00 0.00 39 1021.7
20260509084600 52 0 0.0 3.0 0.00 0.00 0.00 60 1021.4
20260509083054 52 247 1.0 4.0 0.00 0.00 0.00 60 1021.4
20260509081551 53 0 0.0 0.0 0.00 0.00 0.00 59 1021.6
20260509080058 54 0 0.0 0.0 0.00 0.00 0.00 59 1021.5
20260509074550 54 0 0.0 0.0 0.00 0.00 0.00 56 1021.7
20260509073057 55 0 0.0 0.0 0.00 0.00 0.00 54 1021.8
20260509071605 56 0 0.0 1.0 0.00 0.00 0.00 54 1022.0
20260509070048 56 0 0.0 5.0 0.00 0.00 0.00 53 1021.8
20260509064601 56 0 1.0 5.0 0.00 0.00 0.00 54 1022.1